Regional Weather Roundup
Issued by NWS Sioux Falls, SD

Home | Current Version | Previous Version | Graphics & Text | Print | Product List | Glossary On
Versions: 1 2 3 4 5 6 7 8 9 10 11 12 13 14 15 16 17 18 19 20 21 22 23 24 25 26 27 28 29 30 31 32 33 34 35 36 37 38 39 40 41 42 43 44 45 46 47 48 49 50
000
ASUS43 KFSD 040102
RWRFSD

WEATHER ROUNDUP FOR SE SOUTH DAKOTA/SW MINNESOTA/NW IOWA
NATIONAL WEATHER SERVICE SIOUX FALLS SD
800 PM CDT THU SEP 03 2015

NOTE: "FAIR" INDICATES FEW OR NO CLOUDS BELOW 12,000 FEET WITH NO
SIGNIFICANT WEATHER AND OR OBSTRUCTIONS TO VISIBILITY.


SDZ038>040-050-052>070-040200-
SOUTHEAST SOUTH DAKOTA

CITY           SKY/WX    TMP DP  RH WIND       PRES   REMARKS
BROOKINGS      CLEAR     81  70  69 SE10      29.81S
CHAMBERLAIN    CLOUDY    80  72  76 SE8       29.72S
HURON          PTCLDY    83  71  67 SE12      29.74R
MADISON        FAIR      77  77 100 SE7       29.80S
MITCHELL       PTCLDY    80  74  81 SE7       29.74R
SIOUX FALLS    PTCLDY    82  71  69 S10       29.79R
WINNER         FAIR      84  67  56 SE9       29.73R
YANKTON        PTCLDY    81  72  74 E7        29.74S
$$

MNZ071-072-080-081-089-090-097-098-040200-
SOUTHWEST MINNESOTA

CITY           SKY/WX    TMP DP  RH WIND       PRES   REMARKS
FAIRMONT       CLEAR     81  68  65 SE8       29.83S
JACKSON        CLEAR     79  73  83 SE5       29.85R
LUVERNE        CLEAR     81  72  74 CALM      29.81R
MARSHALL       CLEAR     82  72  69 SE9       29.81S
MONTEVIDEO     CLEAR     81  75  83 SE9       29.81S
PIPESTONE      CLEAR     81  72  74 S7        29.82S
REDWOOD FALLS  MOCLDY    83  75  77 E6        29.81R
TRACY          CLEAR     80  74  82 S5        29.82R
WINDOM         CLEAR     81  73  78 SE6       29.83S
WORTHINGTON    PTCLDY    77  72  83 SE6       29.83S
$$

IAZ001>003-012>014-020>022-031-032-NEZ013-014-SDZ071-040200-
NORTHWEST IOWA

CITY           SKY/WX    TMP DP  RH WIND       PRES   REMARKS
ESTHERVILLE    CLEAR     78  73  84 SE7       29.83S
SIOUX CITY     PTCLDY    82  71  69 SE7       29.77R
SPENCER        PTCLDY    79  72  79 SE6       29.83R HAZE
$$

ABBREVIATIONS USED IN REMARKS
   TC - TEMPERATURE IN CELSIUS
  WCI - WIND CHILL INDEX
   HX - HEAT INDEX
  VSB - VISIBILITY



USA.gov is the U.S. government's official web portal to all federal, state and local government web resources and services.